Starlink 11681

operational
NORAD ID: 63755 Int'l Des: 2025-089 Owner: SPXS Country: US Constellation: starlink
LEOCIRCULAR

关于 Starlink 11681

正在加载描述...

实时位置

正在加载3D地球...

即将过境

高度历史

Altitude vs Time

uPlot chart will show altitude changes over time

两行轨道根数

1 63755U 25089E 25306.46514727 .00303117 00000-0 22679-2 0 9995
2 63755 43.0014 339.3597 0005423 268.9728 91.0518 15.70963607 30129
Epoch: Nov 2, 2025 • Age: 32 hours

当前状态

高度 356.9 km
速度 7.70 km/s
星下点 31.20°N, 37.07°E
发射日期 Apr 29, 2025
运行时间 0.5 years
类型 internet

技术详情

分类 Payload
质量 960.00 kg
干质量 910.00 kg
总质量 960.00 kg
长度 0.30 m
直径 4.10 m
跨度 29.00 m
形状 Box + pan
制造商 SPXS
平台类型 Starlink V2MD
阶段状态 In Orbit
所有者/国家 SPXS/US

大型星座

Loading constellations...